| time (UTC) | temp F | wind direction | speed MPH | gust MPH | rain 1hr in | rain 24hr in | rain mn in | humidity % | barometer mb |
| 20260510213109 | 88 | 84 | 1.0 | 12.0 | 0.00 | 0.00 | 0.00 | 69 | 1015.6 |
| 20260510212601 | 89 | 112 | 1.0 | 8.0 | 0.00 | 0.00 | 0.00 | 68 | 1015.6 |
| 20260510212100 | 89 | 136 | 1.0 | 8.0 | 0.00 | 0.00 | 0.00 | 68 | 1015.5 |
| 20260510211557 | 89 | 86 | 0.0 | 8.0 | 0.00 | 0.00 | 0.00 | 68 | 1015.6 |
| 20260510211101 | 89 | 0 | 1.0 | 8.0 | 0.00 | 0.00 | 0.00 | 68 | 1015.6 |
| 20260510210559 | 90 | 135 | 1.0 | 9.0 | 0.00 | 0.00 | 0.00 | 67 | 1015.7 |
| 20260510210100 | 90 | 195 | 2.0 | 11.0 | 0.00 | 0.00 | 0.00 | 67 | 1015.6 |
| 20260510205600 | 90 | 48 | 1.0 | 11.0 | 0.00 | 0.00 | 0.00 | 66 | 1015.6 |
| 20260510205057 | 91 | 180 | 2.0 | 11.0 | 0.00 | 0.00 | 0.00 | 65 | 1015.7 |
| 20260510204603 | 91 | 69 | 0.0 | 4.0 | 0.00 | 0.00 | 0.00 | 66 | 1015.7 |
| 20260510204057 | 91 | 187 | 1.0 | 9.0 | 0.00 | 0.00 | 0.00 | 66 | 1015.9 |
| 20260510203556 | 91 | 0 | 2.0 | 9.0 | 0.00 | 0.00 | 0.00 | 66 | 1015.8 |
| 20260510203059 | 91 | 0 | 1.0 | 7.0 | 0.00 | 0.00 | 0.00 | 65 | 1015.8 |
| 20260510202603 | 90 | 0 | 1.0 | 12.0 | 0.00 | 0.00 | 0.00 | 67 | 1015.9 |
| 20260510202059 | 90 | 151 | 2.0 | 12.0 | 0.00 | 0.00 | 0.00 | 67 | 1015.9 |
| 20260510201559 | 90 | 156 | 2.0 | 13.0 | 0.00 | 0.00 | 0.00 | 67 | 1015.9 |
| 20260510201100 | 91 | 136 | 1.0 | 13.0 | 0.00 | 0.00 | 0.00 | 67 | 1016.0 |
| 20260510200600 | 90 | 193 | 3.0 | 10.0 | 0.00 | 0.00 | 0.00 | 66 | 1015.9 |
| 20260510195559 | 92 | 82 | 2.0 | 9.0 | 0.00 | 0.00 | 0.00 | 65 | 1016.0 |
| 20260510195059 | 92 | 102 | 1.0 | 8.0 | 0.00 | 0.00 | 0.00 | 65 | 1016.1 |
| 20260510194602 | 92 | 115 | 1.0 | 8.0 | 0.00 | 0.00 | 0.00 | 65 | 1016.1 |
| 20260510194100 | 92 | 0 | 0.0 | 7.0 | 0.00 | 0.00 | 0.00 | 65 | 1016.2 |
| 20260510193602 | 92 | 0 | 2.0 | 11.0 | 0.00 | 0.00 | 0.00 | 65 | 1016.3 |
| 20260510193102 | 92 | 192 | 1.0 | 11.0 | 0.00 | 0.00 | 0.00 | 64 | 1016.3 |
| 20260510192557 | 92 | 150 | 2.0 | 6.0 | 0.00 | 0.00 | 0.00 | 64 | 1016.3 |
| 20260510192057 | 93 | 197 | 1.0 | 8.0 | 0.00 | 0.00 | 0.00 | 64 | 1016.5 |
| 20260510191558 | 92 | 0 | 1.0 | 8.0 | 0.00 | 0.00 | 0.00 | 63 | 1016.4 |
| 20260510191059 | 92 | 28 | 1.0 | 7.0 | 0.00 | 0.00 | 0.00 | 64 | 1016.4 |
| 20260510190559 | 92 | 148 | 2.0 | 10.0 | 0.00 | 0.00 | 0.00 | 65 | 1016.4 |
| 20260510190110 | 92 | 0 | 2.0 | 10.0 | 0.00 | 0.00 | 0.00 | 64 | 1016.5 |
| 20260510185600 | 92 | 46 | 2.0 | 11.0 | 0.00 | 0.00 | 0.00 | 64 | 1016.7 |
| 20260510185101 | 92 | 36 | 2.0 | 11.0 | 0.00 | 0.00 | 0.00 | 64 | 1016.7 |
| 20260510184558 | 92 | 0 | 1.0 | 11.0 | 0.00 | 0.00 | 0.00 | 65 | 1016.7 |
| 20260510184058 | 91 | 302 | 1.0 | 9.0 | 0.00 | 0.00 | 0.00 | 65 | 1016.7 |
| 20260510183558 | 91 | 99 | 4.0 | 10.0 | 0.00 | 0.00 | 0.00 | 64 | 1016.7 |
| 20260510183058 | 92 | 112 | 2.0 | 14.0 | 0.00 | 0.00 | 0.00 | 64 | 1016.8 |
| 20260510182558 | 92 | 147 | 4.0 | 14.0 | 0.00 | 0.00 | 0.00 | 63 | 1016.7 |
| 20260510182059 | 92 | 65 | 2.0 | 12.0 | 0.00 | 0.00 | 0.00 | 63 | 1017.0 |
| 20260510181557 | 92 | 221 | 2.0 | 10.0 | 0.00 | 0.00 | 0.00 | 64 | 1016.9 |
| 20260510181058 | 92 | 119 | 1.0 | 15.0 | 0.00 | 0.00 | 0.00 | 62 | 1016.9 |
| 20260510180600 | 92 | 91 | 2.0 | 15.0 | 0.00 | 0.00 | 0.00 | 62 | 1017.1 |
| 20260510180108 | 93 | 173 | 2.0 | 11.0 | 0.00 | 0.00 | 0.00 | 61 | 1017.2 |
| 20260510175557 | 93 | 286 | 2.0 | 9.0 | 0.00 | 0.00 | 0.00 | 59 | 1017.1 |
| 20260510175102 | 94 | 63 | 1.0 | 8.0 | 0.00 | 0.00 | 0.00 | 59 | 1017.1 |
| 20260510174605 | 94 | 117 | 2.0 | 9.0 | 0.00 | 0.00 | 0.00 | 60 | 1017.2 |
| 20260510174100 | 93 | 0 | 0.0 | 9.0 | 0.00 | 0.00 | 0.00 | 60 | 1017.2 |
| 20260510173602 | 93 | 107 | 2.0 | 11.0 | 0.00 | 0.00 | 0.00 | 60 | 1017.4 |
| 20260510173058 | 93 | 261 | 2.0 | 11.0 | 0.00 | 0.00 | 0.00 | 60 | 1017.3 |
| 20260510172604 | 93 | 0 | 1.0 | 8.0 | 0.00 | 0.00 | 0.00 | 60 | 1017.4 |
| 20260510172102 | 93 | 113 | 2.0 | 9.0 | 0.00 | 0.00 | 0.00 | 60 | 1017.4 |
| 20260510171609 | 93 | 143 | 3.0 | 9.0 | 0.00 | 0.00 | 0.00 | 60 | 1017.4 |
| 20260510171101 | 93 | 315 | 1.0 | 9.0 | 0.00 | 0.00 | 0.00 | 62 | 1017.3 |
| 20260510170600 | 93 | 0 | 1.0 | 9.0 | 0.00 | 0.00 | 0.00 | 60 | 1017.5 |
| 20260510170059 | 93 | 134 | 3.0 | 9.0 | 0.00 | 0.00 | 0.00 | 60 | 1017.5 |
| 20260510165600 | 93 | 304 | 1.0 | 8.0 | 0.00 | 0.00 | 0.00 | 61 | 1017.5 |
| 20260510165059 | 93 | 87 | 1.0 | 12.0 | 0.00 | 0.00 | 0.00 | 62 | 1017.5 |
| 20260510164611 | 92 | 106 | 2.0 | 12.0 | 0.00 | 0.00 | 0.00 | 61 | 1017.6 |
| 20260510164059 | 92 | 0 | 2.0 | 12.0 | 0.00 | 0.00 | 0.00 | 60 | 1017.5 |
| 20260510163559 | 93 | 157 | 1.0 | 6.0 | 0.00 | 0.00 | 0.00 | 59 | 1017.6 |
| 20260510163139 | 92 | 216 | 1.0 | 6.0 | 0.00 | 0.00 | 0.00 | 59 | 1017.6 |
| 20260510162601 | 92 | 0 | 1.0 | 5.0 | 0.00 | 0.00 | 0.00 | 61 | 1017.6 |
| 20260510162100 | 92 | 288 | 0.0 | 5.0 | 0.00 | 0.00 | 0.00 | 61 | 1017.7 |
| 20260510161556 | 92 | 77 | 1.0 | 4.0 | 0.00 | 0.00 | 0.00 | 62 | 1017.7 |
| 20260510161100 | 91 | 0 | 1.0 | 6.0 | 0.00 | 0.00 | 0.00 | 63 | 1017.6 |
| 20260510160601 | 90 | 0 | 1.0 | 7.0 | 0.00 | 0.00 | 0.00 | 64 | 1017.6 |
| 20260510155600 | 91 | 119 | 0.0 | 8.0 | 0.00 | 0.00 | 0.00 | 62 | 1017.8 |
| 20260510155101 | 91 | 115 | 2.0 | 8.0 | 0.00 | 0.00 | 0.00 | 63 | 1017.9 |
| 20260510154600 | 90 | 221 | 1.0 | 8.0 | 0.00 | 0.00 | 0.00 | 63 | 1017.8 |
| 20260510154100 | 90 | 0 | 2.0 | 10.0 | 0.00 | 0.00 | 0.00 | 63 | 1017.7 |
| 20260510153559 | 91 | 0 | 0.0 | 11.0 | 0.00 | 0.00 | 0.00 | 64 | 1017.7 |
| 20260510153111 | 91 | 141 | 3.0 | 11.0 | 0.00 | 0.00 | 0.00 | 63 | 1017.6 |
| 20260510152600 | 91 | 0 | 1.0 | 8.0 | 0.00 | 0.00 | 0.00 | 64 | 1017.5 |
| 20260510152100 | 91 | 187 | 1.0 | 7.0 | 0.00 | 0.00 | 0.00 | 64 | 1017.5 |
| 20260510151631 | 91 | 0 | 1.0 | 7.0 | 0.00 | 0.00 | 0.00 | 64 | 1017.5 |
| 20260510151059 | 90 | 0 | 1.0 | 7.0 | 0.00 | 0.00 | 0.00 | 63 | 1017.5 |
| 20260510150559 | 90 | 76 | 0.0 | 5.0 | 0.00 | 0.00 | 0.00 | 63 | 1017.5 |
| 20260510145559 | 90 | 0 | 0.0 | 5.0 | 0.00 | 0.00 | 0.00 | 62 | 1017.6 |
| 20260510145100 | 90 | 239 | 1.0 | 8.0 | 0.00 | 0.00 | 0.00 | 61 | 1017.5 |
| 20260510144618 | 90 | 186 | 3.0 | 8.0 | 0.00 | 0.00 | 0.00 | 61 | 1017.5 |
| 20260510144059 | 90 | 139 | 1.0 | 8.0 | 0.00 | 0.00 | 0.00 | 62 | 1017.6 |
| 20260510143558 | 90 | 140 | 0.0 | 4.0 | 0.00 | 0.00 | 0.00 | 64 | 1017.6 |
| 20260510143112 | 89 | 0 | 1.0 | 5.0 | 0.00 | 0.00 | 0.00 | 66 | 1017.4 |
| 20260510142600 | 89 | 240 | 1.0 | 5.0 | 0.00 | 0.00 | 0.00 | 67 | 1017.3 |
| 20260510142100 | 88 | 0 | 0.0 | 6.0 | 0.00 | 0.00 | 0.00 | 68 | 1017.1 |
| 20260510141602 | 88 | 213 | 1.0 | 8.0 | 0.00 | 0.00 | 0.00 | 68 | 1017.0 |
| 20260510141059 | 88 | 0 | 1.0 | 8.0 | 0.00 | 0.00 | 0.00 | 68 | 1017.0 |
| 20260510140557 | 88 | 226 | 1.0 | 7.0 | 0.00 | 0.00 | 0.00 | 69 | 1017.1 |
| 20260510140058 | 88 | 282 | 1.0 | 4.0 | 0.00 | 0.00 | 0.00 | 70 | 1017.2 |
| 20260510135559 | 88 | 251 | 1.0 | 4.0 | 0.00 | 0.00 | 0.00 | 70 | 1017.1 |
| 20260510135057 | 87 | 238 | 0.0 | 4.0 | 0.00 | 0.00 | 0.00 | 70 | 1017.2 |
| 20260510134605 | 87 | 0 | 0.0 | 7.0 | 0.00 | 0.00 | 0.00 | 71 | 1017.2 |
| 20260510134059 | 87 | 200 | 1.0 | 7.0 | 0.00 | 0.00 | 0.00 | 71 | 1017.2 |
| 20260510133557 | 87 | 209 | 0.0 | 6.0 | 0.00 | 0.00 | 0.00 | 73 | 1017.2 |
| 20260510133059 | 86 | 0 | 1.0 | 5.0 | 0.00 | 0.00 | 0.00 | 73 | 1017.3 |
| 20260510132557 | 86 | 242 | 0.0 | 7.0 | 0.00 | 0.00 | 0.00 | 75 | 1017.1 |
| 20260510132100 | 86 | 0 | 1.0 | 7.0 | 0.00 | 0.00 | 0.00 | 75 | 1017.2 |
| 20260510131605 | 85 | 0 | 1.0 | 7.0 | 0.00 | 0.00 | 0.00 | 76 | 1017.2 |
| 20260510131057 | 85 | 0 | 1.0 | 5.0 | 0.00 | 0.00 | 0.00 | 75 | 1017.2 |
| 20260510130558 | 85 | 0 | 0.0 | 2.0 | 0.00 | 0.00 | 0.00 | 77 | 1017.1 |
| 20260510130057 | 85 | 108 | 0.0 | 4.0 | 0.00 | 0.00 | 0.00 | 78 | 1017.2 |
| 20260510125557 | 84 | 0 | 0.0 | 4.0 | 0.00 | 0.00 | 0.00 | 79 | 1017.2 |
| 20260510125103 | 84 | 0 | 0.0 | 3.0 | 0.00 | 0.00 | 0.00 | 80 | 1017.2 |
| 20260510124606 | 83 | 0 | 0.0 | 3.0 | 0.00 | 0.00 | 0.00 | 81 | 1017.2 |
| 20260510124058 | 83 | 0 | 0.0 | 2.0 | 0.00 | 0.00 | 0.00 | 82 | 1017.1 |
| 20260510123558 | 82 | 0 | 0.0 | 3.0 | 0.00 | 0.00 | 0.00 | 82 | 1016.9 |
| 20260510123058 | 82 | 0 | 0.0 | 3.0 | 0.00 | 0.00 | 0.00 | 83 | 1016.8 |
| 20260510122557 | 82 | 0 | 0.0 | 4.0 | 0.00 | 0.00 | 0.00 | 84 | 1016.7 |
| 20260510122057 | 81 | 0 | 0.0 | 4.0 | 0.00 | 0.00 | 0.00 | 84 | 1016.7 |
| 20260510121607 | 81 | 198 | 0.0 | 2.0 | 0.00 | 0.00 | 0.00 | 85 | 1016.6 |
| 20260510121058 | 80 | 0 | 0.0 | 2.0 | 0.00 | 0.00 | 0.00 | 86 | 1016.6 |
| 20260510120557 | 80 | 69 | 0.0 | 0.0 | 0.00 | 0.00 | 0.00 | 86 | 1016.6 |
| 20260510115557 | 79 | 0 | 0.0 | 0.0 | 0.00 | 0.00 | 0.00 | 86 | 1016.4 |
| 20260510115058 | 79 | 0 | 0.0 | 0.0 | 0.00 | 0.00 | 0.00 | 87 | 1016.4 |
| 20260510114559 | 78 | 0 | 0.0 | 0.0 | 0.00 | 0.00 | 0.00 | 87 | 1016.3 |
| 20260510114058 | 78 | 0 | 0.0 | 0.0 | 0.00 | 0.00 | 0.00 | 87 | 1016.3 |
| 20260510113557 | 78 | 0 | 0.0 | 0.0 | 0.00 | 0.00 | 0.00 | 87 | 1016.2 |
| 20260510113101 | 78 | 0 | 0.0 | 0.0 | 0.00 | 0.00 | 0.00 | 87 | 1016.2 |
| 20260510112600 | 78 | 0 | 0.0 | 0.0 | 0.00 | 0.00 | 0.00 | 86 | 1016.1 |
| 20260510112058 | 77 | 0 | 0.0 | 0.0 | 0.00 | 0.00 | 0.00 | 86 | 1016.1 |
| 20260510111600 | 77 | 0 | 0.0 | 0.0 | 0.00 | 0.00 | 0.00 | 86 | 1016.0 |
| 20260510111057 | 77 | 0 | 0.0 | 0.0 | 0.00 | 0.00 | 0.00 | 86 | 1015.9 |
| 20260510110557 | 77 | 0 | 0.0 | 0.0 | 0.00 | 0.00 | 0.00 | 86 | 1015.9 |
| 20260510110059 | 77 | 0 | 0.0 | 0.0 | 0.00 | 0.00 | 0.00 | 86 | 1015.8 |
| 20260510105558 | 77 | 0 | 0.0 | 0.0 | 0.00 | 0.00 | 0.00 | 86 | 1015.7 |
| 20260510105101 | 77 | 0 | 0.0 | 0.0 | 0.00 | 0.00 | 0.00 | 86 | 1015.7 |
| 20260510104558 | 77 | 0 | 0.0 | 0.0 | 0.00 | 0.00 | 0.00 | 85 | 1015.7 |
| 20260510104059 | 77 | 0 | 0.0 | 0.0 | 0.00 | 0.00 | 0.00 | 85 | 1015.6 |
| 20260510103556 | 77 | 0 | 0.0 | 0.0 | 0.00 | 0.00 | 0.00 | 85 | 1015.6 |
| 20260510103104 | 77 | 0 | 0.0 | 0.0 | 0.00 | 0.00 | 0.00 | 85 | 1015.4 |
| 20260510102600 | 77 | 0 | 0.0 | 0.0 | 0.00 | 0.00 | 0.00 | 85 | 1015.4 |
| 20260510102100 | 77 | 0 | 0.0 | 0.0 | 0.00 | 0.00 | 0.00 | 85 | 1015.4 |
| 20260510101559 | 77 | 0 | 0.0 | 0.0 | 0.00 | 0.00 | 0.00 | 85 | 1015.3 |
| 20260510101058 | 77 | 0 | 0.0 | 0.0 | 0.00 | 0.00 | 0.00 | 85 | 1015.3 |
| 20260510100601 | 77 | 0 | 0.0 | 0.0 | 0.00 | 0.00 | 0.00 | 85 | 1015.3 |
| 20260510100116 | 77 | 0 | 0.0 | 0.0 | 0.00 | 0.00 | 0.00 | 85 | 1015.3 |
| 20260510095600 | 77 | 0 | 0.0 | 0.0 | 0.00 | 0.00 | 0.00 | 85 | 1015.4 |
| 20260510095104 | 77 | 0 | 0.0 | 0.0 | 0.00 | 0.00 | 0.00 | 85 | 1015.2 |
| 20260510094606 | 77 | 0 | 0.0 | 0.0 | 0.00 | 0.00 | 0.00 | 85 | 1015.3 |
| 20260510094103 | 77 | 0 | 0.0 | 0.0 | 0.00 | 0.00 | 0.00 | 85 | 1015.3 |
| 20260510093559 | 77 | 0 | 0.0 | 0.0 | 0.00 | 0.00 | 0.00 | 84 | 1015.3 |
| 20260510093101 | 77 | 0 | 0.0 | 0.0 | 0.00 | 0.00 | 0.00 | 84 | 1015.3 |
| 20260510092558 | 77 | 0 | 0.0 | 0.0 | 0.00 | 0.00 | 0.00 | 84 | 1015.3 |
| 20260510092057 | 77 | 0 | 0.0 | 0.0 | 0.00 | 0.00 | 0.00 | 84 | 1015.2 |
| 20260510091608 | 77 | 0 | 0.0 | 0.0 | 0.00 | 0.00 | 0.00 | 84 | 1015.1 |
| 20260510091057 | 77 | 0 | 0.0 | 0.0 | 0.00 | 0.00 | 0.00 | 84 | 1015.0 |
| 20260510090559 | 77 | 0 | 0.0 | 0.0 | 0.00 | 0.00 | 0.00 | 84 | 1015.0 |
| 20260510090105 | 77 | 0 | 0.0 | 0.0 | 0.00 | 0.00 | 0.00 | 84 | 1015.0 |
| 20260510085557 | 77 | 0 | 0.0 | 0.0 | 0.00 | 0.00 | 0.00 | 84 | 1014.9 |
| 20260510085101 | 78 | 0 | 0.0 | 0.0 | 0.00 | 0.00 | 0.00 | 83 | 1014.9 |
| 20260510084614 | 77 | 0 | 0.0 | 0.0 | 0.00 | 0.00 | 0.00 | 83 | 1014.9 |
| 20260510084104 | 78 | 0 | 0.0 | 0.0 | 0.00 | 0.00 | 0.00 | 83 | 1014.9 |
| 20260510083600 | 78 | 0 | 0.0 | 0.0 | 0.00 | 0.00 | 0.00 | 83 | 1014.9 |
| 20260510083113 | 78 | 0 | 0.0 | 0.0 | 0.00 | 0.00 | 0.00 | 83 | 1014.9 |
| 20260510082559 | 78 | 0 | 0.0 | 0.0 | 0.00 | 0.00 | 0.00 | 83 | 1014.9 |
| 20260510082100 | 78 | 0 | 0.0 | 0.0 | 0.00 | 0.00 | 0.00 | 83 | 1014.9 |
| 20260510081612 | 78 | 0 | 0.0 | 0.0 | 0.00 | 0.00 | 0.00 | 83 | 1014.9 |
| 20260510081059 | 78 | 0 | 0.0 | 0.0 | 0.00 | 0.00 | 0.00 | 83 | 1015.0 |
| 20260510080604 | 78 | 0 | 0.0 | 0.0 | 0.00 | 0.00 | 0.00 | 83 | 1014.9 |
| 20260510080112 | 78 | 0 | 0.0 | 0.0 | 0.00 | 0.00 | 0.00 | 83 | 1014.9 |
| 20260510075557 | 78 | 0 | 0.0 | 0.0 | 0.00 | 0.00 | 0.00 | 82 | 1015.0 |
| 20260510075100 | 78 | 0 | 0.0 | 0.0 | 0.00 | 0.00 | 0.00 | 82 | 1015.0 |
| 20260510074610 | 78 | 0 | 0.0 | 0.0 | 0.00 | 0.00 | 0.00 | 82 | 1015.0 |
| 20260510074101 | 78 | 0 | 0.0 | 0.0 | 0.00 | 0.00 | 0.00 | 82 | 1014.9 |
| 20260510073600 | 78 | 0 | 0.0 | 0.0 | 0.00 | 0.00 | 0.00 | 82 | 1015.0 |
| 20260510073107 | 78 | 0 | 0.0 | 0.0 | 0.00 | 0.00 | 0.00 | 82 | 1015.0 |
| 20260510072556 | 78 | 0 | 0.0 | 0.0 | 0.00 | 0.00 | 0.00 | 81 | 1015.0 |
| 20260510072102 | 78 | 0 | 0.0 | 0.0 | 0.00 | 0.00 | 0.00 | 81 | 1015.0 |
| 20260510071606 | 78 | 0 | 0.0 | 0.0 | 0.00 | 0.00 | 0.00 | 81 | 1015.0 |
| 20260510071100 | 78 | 0 | 0.0 | 0.0 | 0.00 | 0.00 | 0.00 | 81 | 1015.0 |
| 20260510070559 | 78 | 0 | 0.0 | 0.0 | 0.00 | 0.00 | 0.00 | 81 | 1015.0 |
| 20260510070058 | 78 | 0 | 0.0 | 0.0 | 0.00 | 0.00 | 0.00 | 81 | 1015.1 |
| 20260510065600 | 79 | 0 | 0.0 | 0.0 | 0.00 | 0.00 | 0.00 | 81 | 1015.0 |
| 20260510065100 | 79 | 0 | 0.0 | 0.0 | 0.00 | 0.00 | 0.00 | 81 | 1015.1 |
| 20260510064601 | 79 | 0 | 0.0 | 0.0 | 0.00 | 0.00 | 0.00 | 81 | 1015.2 |
| 20260510064059 | 79 | 0 | 0.0 | 0.0 | 0.00 | 0.00 | 0.00 | 81 | 1015.1 |
| 20260510063559 | 79 | 0 | 0.0 | 0.0 | 0.00 | 0.00 | 0.00 | 81 | 1015.1 |
| 20260510063057 | 79 | 0 | 0.0 | 0.0 | 0.00 | 0.00 | 0.00 | 81 | 1015.1 |
| 20260510062557 | 79 | 0 | 0.0 | 0.0 | 0.00 | 0.00 | 0.00 | 81 | 1015.2 |
| 20260510062059 | 79 | 0 | 0.0 | 0.0 | 0.00 | 0.00 | 0.00 | 81 | 1015.2 |
| 20260510061558 | 79 | 0 | 0.0 | 0.0 | 0.00 | 0.00 | 0.00 | 81 | 1015.2 |
| 20260510061059 | 79 | 0 | 0.0 | 0.0 | 0.00 | 0.00 | 0.00 | 80 | 1015.2 |
| 20260510060558 | 79 | 0 | 0.0 | 0.0 | 0.00 | 0.00 | 0.00 | 80 | 1015.3 |
| 20260510060058 | 79 | 0 | 0.0 | 0.0 | 0.00 | 0.00 | 0.00 | 80 | 1015.2 |
| 20260510055557 | 79 | 0 | 0.0 | 0.0 | 0.00 | 0.00 | 0.00 | 80 | 1015.3 |
| 20260510055059 | 79 | 0 | 0.0 | 0.0 | 0.00 | 0.00 | 0.00 | 80 | 1015.4 |
| 20260510054558 | 79 | 0 | 0.0 | 0.0 | 0.00 | 0.00 | 0.00 | 80 | 1015.3 |
| 20260510054057 | 79 | 0 | 0.0 | 0.0 | 0.00 | 0.00 | 0.00 | 80 | 1015.4 |
| 20260510053556 | 79 | 0 | 0.0 | 0.0 | 0.00 | 0.00 | 0.00 | 79 | 1015.4 |
| 20260510053107 | 79 | 0 | 0.0 | 0.0 | 0.00 | 0.00 | 0.00 | 79 | 1015.4 |
| 20260510052600 | 79 | 0 | 0.0 | 0.0 | 0.00 | 0.00 | 0.00 | 79 | 1015.5 |
| 20260510052100 | 79 | 0 | 0.0 | 0.0 | 0.00 | 0.00 | 0.00 | 79 | 1015.6 |
| 20260510051600 | 79 | 0 | 0.0 | 0.0 | 0.00 | 0.00 | 0.00 | 78 | 1015.6 |
| 20260510051057 | 79 | 0 | 0.0 | 0.0 | 0.00 | 0.00 | 0.00 | 78 | 1015.7 |
| 20260510050557 | 79 | 0 | 0.0 | 0.0 | 0.00 | 0.00 | 0.00 | 78 | 1015.8 |
| 20260510045559 | 80 | 0 | 0.0 | 0.0 | 0.00 | 0.00 | 0.00 | 78 | 1015.9 |
| 20260510045059 | 80 | 0 | 0.0 | 0.0 | 0.00 | 0.00 | 0.00 | 78 | 1015.9 |
| 20260510044600 | 80 | 0 | 0.0 | 0.0 | 0.00 | 0.00 | 0.00 | 77 | 1015.9 |
| 20260510044057 | 80 | 0 | 0.0 | 0.0 | 0.00 | 0.00 | 0.00 | 77 | 1015.9 |
| 20260510043557 | 80 | 0 | 0.0 | 0.0 | 0.00 | 0.00 | 0.00 | 77 | 1015.8 |
| 20260510043110 | 80 | 0 | 0.0 | 0.0 | 0.00 | 0.00 | 0.00 | 77 | 1015.9 |
| 20260510042558 | 80 | 0 | 0.0 | 0.0 | 0.00 | 0.00 | 0.00 | 76 | 1015.9 |
| 20260510042100 | 80 | 0 | 0.0 | 0.0 | 0.00 | 0.00 | 0.00 | 76 | 1015.9 |
| 20260510041558 | 80 | 0 | 0.0 | 0.0 | 0.00 | 0.00 | 0.00 | 75 | 1015.9 |
| 20260510041057 | 80 | 0 | 0.0 | 0.0 | 0.00 | 0.00 | 0.00 | 75 | 1016.0 |
| 20260510040558 | 80 | 0 | 0.0 | 0.0 | 0.00 | 0.00 | 0.00 | 75 | 1015.9 |
| 20260510040104 | 81 | 0 | 0.0 | 0.0 | 0.00 | 0.00 | 0.00 | 74 | 1015.9 |
| 20260510035558 | 81 | 0 | 0.0 | 0.0 | 0.00 | 0.00 | 0.00 | 74 | 1015.9 |
| 20260510035058 | 81 | 0 | 0.0 | 0.0 | 0.00 | 0.00 | 0.00 | 74 | 1015.9 |
| 20260510034600 | 81 | 0 | 0.0 | 0.0 | 0.00 | 0.00 | 0.00 | 74 | 1015.8 |
| 20260510034058 | 81 | 0 | 0.0 | 0.0 | 0.00 | 0.00 | 0.00 | 74 | 1015.9 |
| 20260510033557 | 81 | 0 | 0.0 | 0.0 | 0.00 | 0.00 | 0.00 | 74 | 1015.9 |
| 20260510033138 | 81 | 0 | 0.0 | 0.0 | 0.00 | 0.00 | 0.00 | 74 | 1015.9 |
| 20260510032558 | 81 | 0 | 0.0 | 0.0 | 0.00 | 0.00 | 0.00 | 74 | 1015.7 |
| 20260510032058 | 81 | 0 | 0.0 | 0.0 | 0.00 | 0.00 | 0.00 | 73 | 1015.7 |
| 20260510031622 | 81 | 0 | 0.0 | 0.0 | 0.00 | 0.00 | 0.00 | 73 | 1015.8 |
| 20260510031101 | 81 | 0 | 0.0 | 0.0 | 0.00 | 0.00 | 0.00 | 73 | 1015.8 |
| 20260510030558 | 81 | 0 | 0.0 | 0.0 | 0.00 | 0.00 | 0.00 | 73 | 1015.7 |
| 20260510025557 | 81 | 0 | 0.0 | 0.0 | 0.00 | 0.00 | 0.00 | 73 | 1015.7 |
| 20260510025057 | 81 | 0 | 0.0 | 0.0 | 0.00 | 0.00 | 0.00 | 73 | 1015.6 |
| 20260510024559 | 81 | 0 | 0.0 | 0.0 | 0.00 | 0.00 | 0.00 | 73 | 1015.6 |
| 20260510024057 | 81 | 0 | 0.0 | 0.0 | 0.00 | 0.00 | 0.00 | 73 | 1015.6 |
| 20260510023557 | 81 | 0 | 0.0 | 0.0 | 0.00 | 0.00 | 0.00 | 73 | 1015.5 |
| 20260510023059 | 81 | 0 | 0.0 | 0.0 | 0.00 | 0.00 | 0.00 | 72 | 1015.4 |
| 20260510022557 | 82 | 0 | 0.0 | 0.0 | 0.00 | 0.00 | 0.00 | 72 | 1015.4 |
| 20260510022101 | 82 | 0 | 0.0 | 1.0 | 0.00 | 0.00 | 0.00 | 72 | 1015.3 |
| 20260510021601 | 82 | 0 | 0.0 | 1.0 | 0.00 | 0.00 | 0.00 | 72 | 1015.2 |
| 20260510021057 | 82 | 0 | 0.0 | 1.0 | 0.00 | 0.00 | 0.00 | 72 | 1015.3 |
| 20260510020558 | 82 | 0 | 0.0 | 1.0 | 0.00 | 0.00 | 0.00 | 72 | 1015.2 |
| 20260510020058 | 82 | 0 | 0.0 | 1.0 | 0.00 | 0.00 | 0.00 | 71 | 1015.1 |
| 20260510015558 | 82 | 0 | 0.0 | 1.0 | 0.00 | 0.00 | 0.00 | 71 | 1015.0 |
| 20260510015057 | 82 | 0 | 0.0 | 2.0 | 0.00 | 0.00 | 0.00 | 71 | 1015.1 |
| 20260510014558 | 82 | 0 | 0.0 | 3.0 | 0.00 | 0.00 | 0.00 | 71 | 1015.1 |
| 20260510014057 | 82 | 0 | 0.0 | 4.0 | 0.00 | 0.00 | 0.00 | 71 | 1014.9 |
| 20260510013558 | 82 | 238 | 0.0 | 4.0 | 0.00 | 0.00 | 0.00 | 71 | 1014.9 |
| 20260510013058 | 82 | 0 | 0.0 | 4.0 | 0.00 | 0.00 | 0.00 | 71 | 1014.8 |
| 20260510012558 | 82 | 0 | 0.0 | 3.0 | 0.00 | 0.00 | 0.00 | 71 | 1014.7 |
| 20260510012058 | 82 | 0 | 0.0 | 3.0 | 0.00 | 0.00 | 0.00 | 71 | 1014.5 |
| 20260510011603 | 82 | 239 | 0.0 | 4.0 | 0.00 | 0.00 | 0.00 | 71 | 1014.6 |
| 20260510011059 | 82 | 349 | 0.0 | 4.0 | 0.00 | 0.00 | 0.00 | 71 | 1014.4 |
| 20260510010558 | 82 | 236 | 0.0 | 4.0 | 0.00 | 0.00 | 0.00 | 70 | 1014.4 |
| 20260510010109 | 82 | 0 | 0.0 | 7.0 | 0.00 | 0.00 | 0.00 | 70 | 1014.4 |
| 20260510005558 | 83 | 259 | 1.0 | 7.0 | 0.00 | 0.00 | 0.00 | 70 | 1014.3 |
| 20260510005058 | 83 | 0 | 0.0 | 4.0 | 0.00 | 0.00 | 0.00 | 70 | 1014.2 |
| 20260510004558 | 83 | 86 | 0.0 | 3.0 | 0.00 | 0.00 | 0.00 | 70 | 1014.2 |
| 20260510004058 | 83 | 0 | 0.0 | 3.0 | 0.00 | 0.00 | 0.00 | 70 | 1014.0 |
| 20260510003559 | 83 | 279 | 0.0 | 3.0 | 0.00 | 0.00 | 0.00 | 70 | 1013.8 |
| 20260510003057 | 83 | 28 | 0.0 | 3.0 | 0.00 | 0.00 | 0.00 | 70 | 1013.8 |
| 20260510002604 | 83 | 127 | 0.0 | 5.0 | 0.00 | 0.00 | 0.00 | 70 | 1013.7 |
| 20260510002101 | 83 | 161 | 0.0 | 5.0 | 0.00 | 0.00 | 0.00 | 70 | 1013.7 |
| 20260510001600 | 83 | 319 | 0.0 | 5.0 | 0.00 | 0.00 | 0.00 | 69 | 1013.7 |
| 20260510001101 | 84 | 334 | 0.0 | 7.0 | 0.00 | 0.00 | 0.00 | 69 | 1013.5 |
| 20260510000602 | 84 | 127 | 0.0 | 7.0 | 0.00 | 0.00 | 0.00 | 69 | 1013.5 |
| 20260510000107 | 84 | 0 | 1.0 | 7.0 | 0.00 | 0.00 | 0.00 | 68 | 1013.4 |
| 20260509235602 | 84 | 0 | 0.0 | 3.0 | 0.00 | 0.00 | 0.00 | 67 | 1013.1 |
| 20260509235100 | 84 | 0 | 1.0 | 4.0 | 0.00 | 0.00 | 0.00 | 67 | 1013.1 |
| 20260509234603 | 84 | 0 | 0.0 | 4.0 | 0.00 | 0.00 | 0.00 | 66 | 1013.1 |
| 20260509234101 | 84 | 0 | 0.0 | 3.0 | 0.00 | 0.00 | 0.00 | 66 | 1013.1 |
| 20260509233559 | 84 | 0 | 0.0 | 3.0 | 0.00 | 0.00 | 0.00 | 66 | 1013.2 |
| 20260509233100 | 84 | 257 | 0.0 | 4.0 | 0.00 | 0.00 | 0.00 | 66 | 1013.2 |
| 20260509232602 | 85 | 261 | 0.0 | 7.0 | 0.00 | 0.00 | 0.00 | 66 | 1013.1 |
| 20260509232102 | 85 | 0 | 1.0 | 7.0 | 0.00 | 0.00 | 0.00 | 66 | 1013.1 |
| 20260509231601 | 85 | 120 | 1.0 | 6.0 | 0.00 | 0.00 | 0.00 | 65 | 1013.1 |
| 20260509231101 | 85 | 0 | 1.0 | 7.0 | 0.00 | 0.00 | 0.00 | 66 | 1013.0 |
| 20260509230601 | 85 | 228 | 1.0 | 7.0 | 0.00 | 0.00 | 0.00 | 65 | 1012.9 |
| 20260509225602 | 86 | 0 | 0.0 | 6.0 | 0.00 | 0.00 | 0.00 | 66 | 1012.8 |
| 20260509225100 | 86 | 202 | 1.0 | 6.0 | 0.00 | 0.00 | 0.00 | 66 | 1012.8 |
| 20260509224559 | 87 | 176 | 1.0 | 4.0 | 0.00 | 0.00 | 0.00 | 67 | 1012.8 |
| 20260509224103 | 87 | 0 | 0.0 | 9.0 | 0.00 | 0.00 | 0.00 | 66 | 1012.8 |
| 20260509223602 | 87 | 264 | 1.0 | 9.0 | 0.00 | 0.00 | 0.00 | 64 | 1012.8 |
| 20260509223107 | 88 | 190 | 0.0 | 8.0 | 0.00 | 0.00 | 0.00 | 64 | 1012.8 |
| 20260509222601 | 88 | 0 | 1.0 | 8.0 | 0.00 | 0.00 | 0.00 | 64 | 1012.8 |
| 20260509222101 | 88 | 252 | 0.0 | 6.0 | 0.00 | 0.00 | 0.00 | 64 | 1012.7 |
| 20260509221601 | 89 | 197 | 1.0 | 6.0 | 0.00 | 0.00 | 0.00 | 63 | 1012.8 |
| 20260509221101 | 89 | 346 | 1.0 | 7.0 | 0.00 | 0.00 | 0.00 | 61 | 1012.7 |
| 20260509220601 | 90 | 186 | 1.0 | 7.0 | 0.00 | 0.00 | 0.00 | 62 | 1012.7 |
| 20260509215558 | 90 | 349 | 1.0 | 7.0 | 0.00 | 0.00 | 0.00 | 61 | 1012.8 |
| 20260509215058 | 90 | 231 | 1.0 | 7.0 | 0.00 | 0.00 | 0.00 | 62 | 1012.7 |
| 20260509214602 | 90 | 213 | 1.0 | 7.0 | 0.00 | 0.00 | 0.00 | 62 | 1012.5 |
| 20260509214102 | 90 | 153 | 1.0 | 7.0 | 0.00 | 0.00 | 0.00 | 62 | 1012.8 |
| 20260509213559 | 90 | 0 | 0.0 | 6.0 | 0.00 | 0.00 | 0.00 | 64 | 1012.5 |